LDA8I LOWW-EDDN

Flight info

Callsign LDA8I
Flight time N/A
Altitude 36000
Route BUWUT2B/16 BUWUT DCT DITIS DCT IPDUL DCT RAPET T170 GAPLA/N0388F240 Z190 WRB P12 ESADU/N0378F220 Z858 NUDGO/N0328F120 Z858 DOMUX DCT MISGO
Aircraft A321/M-SDE3FGHIRWY/LB1

Departure

Time N/A
Airport Vienna International Airport (LOWW)

Arrival

Time 2026-05-04 19:12
Airport Nuremberg Airport (EDDN)
Time Latitude Longitude Altitude Speed Heading
2026-05-04 18:54 50.13307 11.73420 22725 ft 417 kts 47°
2026-05-04 18:54 50.15516 11.76284 21810 ft 409 kts 29°
2026-05-04 18:54 50.18087 11.77933 20909 ft 399 kts 11°
2026-05-04 18:55 50.20810 11.78253 20010 ft 389 kts 352°
2026-05-04 18:55 50.25473 11.74987 18230 ft 368 kts 313°
2026-05-04 18:55 50.27095 11.71963 17384 ft 360 kts 301°
2026-05-04 18:56 50.28360 11.68576 16501 ft 356 kts 296°
2026-05-04 18:56 50.29493 11.65211 15663 ft 353 kts 295°
2026-05-04 18:56 50.30599 11.61858 14807 ft 349 kts 294°
2026-05-04 18:56 50.31336 11.58299 13923 ft 342 kts 274°
2026-05-04 18:57 50.31167 11.54693 13063 ft 334 kts 252°
2026-05-04 18:57 50.30130 11.51525 12214 ft 334 kts 230°
2026-05-04 18:57 50.28337 11.49221 11489 ft 337 kts 208°
2026-05-04 18:57 50.26091 11.48203 11081 ft 337 kts 189°
2026-05-04 18:58 50.23769 11.47884 10958 ft 339 kts 185°
2026-05-04 18:58 50.21415 11.47673 10953 ft 339 kts 185°
2026-05-04 18:58 50.19053 11.47483 10961 ft 339 kts 185°
2026-05-04 18:58 50.16700 11.47295 10961 ft 339 kts 185°
2026-05-04 18:59 50.14350 11.47109 10957 ft 339 kts 185°
2026-05-04 18:59 50.12007 11.46921 10954 ft 339 kts 185°
2026-05-04 18:59 50.09635 11.46730 10948 ft 339 kts 185°
2026-05-04 18:59 50.07295 11.46542 10950 ft 339 kts 185°
2026-05-04 19:00 50.04921 11.46354 10948 ft 339 kts 185°
2026-05-04 19:00 50.02566 11.46170 10948 ft 339 kts 185°
2026-05-04 19:00 50.00212 11.45989 10948 ft 339 kts 185°
2026-05-04 19:00 49.97854 11.45810 10948 ft 338 kts 185°
2026-05-04 19:01 49.95573 11.45640 10942 ft 322 kts 185°
2026-05-04 19:01 49.93408 11.45481 10941 ft 305 kts 185°
2026-05-04 19:01 49.90678 11.45287 10941 ft 285 kts 185°
2026-05-04 19:01 49.89378 11.45200 10941 ft 275 kts 185°
2026-05-04 19:02 49.87506 11.45078 10939 ft 260 kts 185°
2026-05-04 19:02 49.85760 11.44964 10937 ft 247 kts 185°
2026-05-04 19:02 49.84042 11.44851 10942 ft 246 kts 185°
2026-05-04 19:02 49.82335 11.44735 10798 ft 242 kts 185°
2026-05-04 19:03 49.80653 11.44620 10183 ft 250 kts 185°
2026-05-04 19:03 49.78903 11.44493 9572 ft 256 kts 185°
2026-05-04 19:03 49.77135 11.44360 9120 ft 255 kts 185°
2026-05-04 19:03 49.75359 11.44219 8674 ft 254 kts 185°
2026-05-04 19:04 49.73609 11.44074 8244 ft 252 kts 185°
2026-05-04 19:04 49.71851 11.43926 7816 ft 250 kts 185°
2026-05-04 19:04 49.70132 11.43774 7394 ft 249 kts 185°
2026-05-04 19:04 49.68410 11.43611 6969 ft 247 kts 185°
2026-05-04 19:05 49.66691 11.43438 6534 ft 247 kts 185°
2026-05-04 19:05 49.64986 11.43260 6150 ft 245 kts 185°
2026-05-04 19:05 49.63322 11.43083 5962 ft 238 kts 185°
2026-05-04 19:05 49.61678 11.42903 5672 ft 237 kts 185°
2026-05-04 19:06 49.60035 11.42723 5338 ft 237 kts 185°
2026-05-04 19:06 49.58375 11.42534 4997 ft 238 kts 185°
2026-05-04 19:06 49.56744 11.42342 4667 ft 239 kts 185°
2026-05-04 19:06 49.55072 11.42141 4336 ft 240 kts 185°
2026-05-04 19:07 49.53415 11.41939 4051 ft 239 kts 185°
2026-05-04 19:07 49.51738 11.41733 4001 ft 241 kts 185°
2026-05-04 19:07 49.50068 11.41530 3996 ft 242 kts 185°
2026-05-04 19:07 49.48420 11.41117 3979 ft 241 kts 203°
2026-05-04 19:08 49.47092 11.39620 3985 ft 239 kts 235°
2026-05-04 19:08 49.46466 11.37288 3990 ft 235 kts 267°
2026-05-04 19:08 49.46687 11.34899 3989 ft 220 kts 290°
2026-05-04 19:08 49.47179 11.32689 3914 ft 218 kts 288°
2026-05-04 19:09 49.47570 11.30427 3659 ft 219 kts 284°
2026-05-04 19:09 49.47879 11.28165 3378 ft 220 kts 282°
2026-05-04 19:09 49.48128 11.25809 3091 ft 221 kts 280°
2026-05-04 19:09 49.48344 11.23495 2807 ft 223 kts 280°
2026-05-04 19:10 49.48560 11.21194 2577 ft 208 kts 280°
2026-05-04 19:10 49.48697 11.19753 2397 ft 198 kts 280°
2026-05-04 19:10 49.48953 11.17122 2050 ft 178 kts 280°
2026-05-04 19:10 49.49129 11.15308 1776 ft 164 kts 279°
2026-05-04 19:11 49.49280 11.13667 1572 ft 150 kts 280°
2026-05-04 19:11 49.49441 11.12111 1390 ft 147 kts 279°
2026-05-04 19:11 49.49592 11.10573 1199 ft 145 kts 279°
2026-05-04 19:11 49.49743 11.09063 1053 ft 139 kts 278°
2026-05-04 19:12 49.49869 11.07810 1029 ft 83 kts 279°
2026-05-04 19:12 49.49832 11.07043 1019 ft 21 kts 158°
2026-05-04 19:12 49.49806 11.07059 1019 ft 0 kts 156°
2026-05-04 19:13 49.49805 11.07059 1019 ft 0 kts 156°
2026-05-04 19:13 49.49788 11.07072 1019 ft 7 kts 153°
2026-05-04 19:13 49.49752 11.07127 1019 ft 7 kts 118°
2026-05-04 19:14 49.49719 11.07220 1019 ft 8 kts 151°
2026-05-04 19:14 49.49674 11.07186 1019 ft 7 kts 252°
2026-05-04 19:14 49.49666 11.07151 1019 ft 3 kts 223°
2026-05-04 19:14 49.49636 11.07141 1018 ft 1 kts 181°
2026-05-04 19:15 49.49635 11.07141 1018 ft 0 kts 181°